Voltar ao catálogo

THOR ABLESTAR DEB

AtivoLEO
NORAD 252·DEBRIS·🇺🇸 United States

Lançado Jun 29, 1961 de Cape Canaveral Space Force Station

Loading…

Próximas Passagens (próximas 24 horas)

TLE

AtualizadoSource: Space-Track

Época: Sep 13, 2026, 15:44 UTC

1 00252U 61015CD  26256.65588006  .00000183  00000-0  25201-3 0  9996
2 00252  67.0806 337.7503 0050869 142.0528  20.2581 13.77870532263514

Acompanhe THOR ABLESTAR DEB em tempo real com AllMySat

Download on the App Store